FW8134 Weather Reports


Display with metric or nautical units.
time (UTC)temp
F
wind
direction
speed
MPH
gust
MPH
rain 1hr
in
rain 24hr
in
rain mn
in
humidity
%
barometer
mb
20260506230526 42 0.0 0.0 0.00 0.18 0.00 95 995.4
20260506225602 42 0.0 0.0 0.00 0.18 0.00 95 995.4
20260506224518 42 0.0 0.0 0.00 0.18 0.00 95 995.4
20260506223519 43 0.0 0.0 0.00 0.18 0.00 95 995.3
20260506222515 43 0.0 0.0 0.00 0.19 0.00 94 995.3
20260506221516 43 0.0 0.0 0.00 0.19 0.00 94 995.3
20260506220517 43 0.0 0.0 0.00 0.19 0.00 93 995.2
20260506215519 43 0.0 0.0 0.00 0.19 0.19 93 995.2
20260506214520 44 0.0 0.0 0.00 0.20 0.19 93 995.1
20260506213516 44 0.0 0.0 0.00 0.20 0.19 93 995.1
20260506212517 44 0.0 0.0 0.00 0.21 0.19 92 995.1
20260506211538 45 0.0 0.0 0.00 0.24 0.19 91 995.1
20260506210519 45 0.0 0.0 0.00 0.24 0.19 91 995.1
20260506205521 46 0.0 0.0 0.00 0.26 0.19 90 995.0
20260506204516 46 0.0 0.0 0.00 0.28 0.19 89 994.9
20260506203538 47 0.0 0.0 0.00 0.31 0.19 88 994.9
20260506202539 48 0.0 0.0 0.00 0.35 0.19 88 994.8
20260506201520 48 280 0.0 2.0 0.00 0.39 0.19 89 994.8
20260506200536 48 0.0 2.0 0.00 0.43 0.19 89 994.6
20260506195517 48 0.0 0.0 0.00 0.46 0.19 89 994.5
20260506194518 49 0.0 0.0 0.00 0.47 0.19 88 994.3
20260506193520 49 217 0.0 1.0 0.00 0.47 0.19 87 994.2
20260506192516 49 0.0 0.0 0.00 0.48 0.19 85 994.0
20260506191517 50 0.0 0.0 0.00 0.48 0.19 84 993.9
20260506190518 50 0.0 0.0 0.00 0.50 0.19 83 993.8
20260506185519 51 277 0.0 0.0 0.00 0.50 0.19 82 993.8
20260506184520 51 257 0.0 1.0 0.00 0.52 0.19 82 993.7
20260506183516 52 320 0.0 2.0 0.00 0.54 0.19 81 993.6
20260506182518 52 16 0.0 2.0 0.00 0.55 0.19 80 993.5
20260506181519 53 283 0.0 2.0 0.00 0.56 0.19 78 993.4
20260506180515 53 291 0.0 4.0 0.00 0.57 0.19 77 993.3
20260506175516 54 41 1.0 3.0 0.00 0.57 0.19 76 993.2
20260506174517 54 29 3.0 8.0 0.00 0.59 0.19 75 993.1
20260506173558 55 14 5.0 12.0 0.00 0.60 0.19 75 993.0
20260506172559 55 41 4.0 9.0 0.00 0.61 0.19 76 992.8
20260506171515 55 13 4.0 10.0 0.00 0.64 0.19 75 992.8
20260506170516 55 16 4.0 9.0 0.00 0.66 0.19 75 992.7
20260506165517 55 34 3.0 9.0 0.00 0.68 0.19 76 992.7
20260506164518 54 33 3.0 8.0 0.00 0.69 0.19 77 992.7
20260506163519 55 12 2.0 8.0 0.00 0.71 0.19 76 992.7
20260506162535 55 338 2.0 6.0 0.00 0.72 0.19 75 992.7
20260506161516 55 20 2.0 7.0 0.00 0.73 0.19 73 992.6
20260506160517 55 39 4.0 8.0 0.00 0.74 0.19 72 992.6
20260506155519 56 22 3.0 8.0 0.00 0.74 0.19 71 992.6
20260506154535 56 27 3.0 11.0 0.00 0.75 0.19 72 992.5
20260506153516 56 41 4.0 7.0 0.00 0.76 0.19 73 992.5
20260506152517 55 6 3.0 10.0 0.00 0.78 0.19 73 992.6
20260506151517 54 36 3.0 9.0 0.00 0.80 0.19 75 992.7
20260506150519 54 37 1.0 4.0 0.00 0.82 0.19 76 992.7
20260506145514 54 24 4.0 10.0 0.00 0.85 0.19 76 992.7
20260506144516 54 8 2.0 7.0 0.00 0.87 0.19 77 992.6
20260506143517 54 44 4.0 9.0 0.00 0.87 0.19 76 992.6
20260506142518 55 42 4.0 9.0 0.00 0.89 0.19 75 992.5
20260506141519 55 37 3.0 7.0 0.00 0.91 0.19 74 992.4
20260506140520 56 30 4.0 7.0 0.00 0.92 0.19 73 992.3
20260506135516 57 2 3.0 6.0 0.00 0.94 0.19 71 992.2
20260506134517 57 43 2.0 6.0 0.00 0.95 0.19 70 992.2
20260506133517 58 45 5.0 12.0 0.00 0.96 0.19 69 992.2
20260506132539 57 32 4.0 9.0 0.00 0.98 0.19 72 992.3
20260506131519 57 327 2.0 5.0 0.00 0.99 0.19 73 992.3
20260506130536 57 43 5.0 12.0 0.00 1.01 0.19 72 992.2
20260506125517 57 46 5.0 12.0 0.00 1.02 0.19 72 992.2
20260506124518 57 48 5.0 12.0 0.00 1.02 0.19 73 992.1
20260506123519 57 2 4.0 8.0 0.00 1.02 0.19 73 992.1
20260506122520 57 247 2.0 6.0 0.00 1.02 0.19 74 992.1
20260506121516 56 23 3.0 8.0 0.00 1.03 0.19 74 992.1
20260506120517 56 20 5.0 16.0 0.00 1.03 0.19 74 992.1
20260506115518 56 17 4.0 10.0 0.00 1.03 0.19 76 992.1
20260506114519 55 2 3.0 8.0 0.00 1.03 0.19 78 992.2
20260506113520 55 356 4.0 10.0 0.00 1.03 0.19 79 992.2
20260506112516 54 39 5.0 13.0 0.00 1.03 0.19 80 992.3
20260506111517 54 0 4.0 11.0 0.00 1.03 0.19 80 992.3
20260506110518 54 314 3.0 7.0 0.00 1.03 0.19 83 992.3
20260506105539 54 325 3.0 6.0 0.00 1.03 0.19 85 992.3
20260506104520 53 345 3.0 10.0 0.00 1.03 0.19 86 992.3
20260506103556 53 39 3.0 14.0 0.00 1.03 0.19 86 992.3
20260506102537 52 30 4.0 8.0 0.00 1.03 0.19 88 992.4
20260506101518 51 31 3.0 9.0 0.00 1.03 0.19 89 992.4
20260506100539 51 23 4.0 11.0 0.00 1.03 0.19 88 992.3
20260506095519 51 43 1.0 6.0 0.00 1.03 0.19 89 992.2
20260506094515 51 30 3.0 12.0 0.00 1.03 0.19 90 992.2
20260506093516 50 34 2.0 12.0 0.00 1.03 0.19 91 992.1
20260506092517 50 325 2.0 9.0 0.00 1.03 0.19 93 992.1
20260506091519 49 39 3.0 7.0 0.00 1.03 0.19 93 992.0
20260506090519 49 33 4.0 8.0 0.01 1.03 0.19 93 992.0
20260506085515 49 17 2.0 7.0 0.01 1.03 0.19 93 991.9
20260506084516 49 30 4.0 6.0 0.01 1.03 0.19 94 991.9
20260506083537 49 19 4.0 8.0 0.01 1.03 0.19 94 991.8
20260506082518 48 39 4.0 7.0 0.01 1.03 0.19 94 991.6
20260506081540 48 23 4.0 9.0 0.01 1.03 0.19 95 991.5
20260506080520 48 40 3.0 7.0 0.00 1.02 0.18 96 991.4
20260506072519 48 37 3.0 7.0 0.00 1.02 0.18 97 991.1
20260506071521 48 35 3.0 6.0 0.00 1.02 0.18 97 991.0
20260506070516 47 27 3.0 6.0 0.00 1.02 0.18 97 990.9
20260506061516 47 42 3.0 7.0 0.00 1.02 0.18 98 990.6
20260506060517 47 52 3.0 9.0 0.00 1.02 0.18 98 990.5
20260506050538 47 27 3.0 11.0 0.02 1.03 0.18 98 990.0
20260506044520 48 8 2.0 7.0 0.02 1.02 0.17 98 990.0
20260506043517 48 34 3.0 8.0 0.02 1.02 0.17 98 989.9
20260506042517 48 14 2.0 6.0 0.02 1.02 0.17 98 989.9
20260506041519 48 14 3.0 7.0 0.02 1.02 0.17 98 989.9
20260506040520 48 9 2.0 8.0 0.02 1.01 0.16 98 989.9
20260506035515 48 51 2.0 6.0 0.03 1.01 0.16 98 989.9
20260506034517 48 44 1.0 4.0 0.04 1.01 0.16 98 989.9
20260506033517 48 12 3.0 9.0 0.05 1.01 0.16 98 989.9
20260506032539 48 39 2.0 5.0 0.04 1.00 0.15 98 989.9
20260506031640 48 13 1.0 4.0 0.04 0.99 0.14 98 989.9
20260506030536 48 40 1.0 4.0 0.03 0.98 0.13 98 990.0
20260506025517 49 335 2.0 5.0 0.03 0.98 0.13 98 990.0
20260506024518 49 20 2.0 5.0 0.02 0.97 0.12 98 990.1
20260506023519 49 35 1.0 6.0 0.02 0.96 0.11 98 990.1
20260506022515 49 3 2.0 7.0 0.02 0.96 0.11 98 990.0
20260506021516 49 2 2.0 4.0 0.02 0.95 0.10 98 990.0
20260506020518 49 2 1.0 4.0 0.02 0.95 0.10 98 989.9
20260506015559 49 44 1.0 4.0 0.02 0.94 0.09 98 989.9
20260506014540 49 336 1.0 4.0 0.02 0.94 0.09 98 989.9
20260506013516 49 15 2.0 6.0 0.03 0.94 0.09 98 989.9
20260506012517 49 21 1.0 5.0 0.05 0.94 0.09 98 989.8
20260506011519 50 49 1.0 5.0 0.06 0.94 0.09 98 989.9
20260506010520 50 34 2.0 5.0 0.05 0.93 0.08 98 989.8
20260506005516 50 43 2.0 6.0 0.06 0.93 0.08 98 989.8
20260506004537 50 352 2.0 5.0 0.05 0.92 0.07 98 989.8
20260506003518 50 17 3.0 8.0 0.04 0.91 0.06 98 989.9
20260506002519 51 36 2.0 6.0 0.02 0.89 0.04 98 989.9
20260506001520 51 18 1.0 3.0 0.02 0.88 0.03 98 989.9
20260506000516 51 21 3.0 7.0 0.02 0.88 0.03 98 989.9
20260505235517 51 19 2.0 7.0 0.02 0.87 0.02 98 989.9
20260505234538 51 42 2.0 4.0 0.02 0.87 0.02 98 989.9
20260505233519 51 51 3.0 12.0 0.01 0.87 0.02 98 989.9
20260505232515 51 1 4.0 10.0 0.02 0.87 0.02 98 989.9
20260505231556 52 7 3.0 7.0 0.02 0.87 0.02 98 989.9